Altus AFB, OK

10:04 AM CDT on September 23, 2017 (GMT -0500)
Altus Air Force Base

Weather History for KLTS - May, 2013

Change the Weather History Date:

Tuesday, May 21, 2013

  Actual Average Record
Temperature  
Mean Temperature 67 °F -  
Max Temperature 78 °F 83 °F 100 °F (1998)
Min Temperature 56 °F 61 °F 46 °F (2017)
Cooling Degree Days 2    
Growing Degree Days 17 (Base 50)    
Moisture  
Dew Point 52 °F    
Average Humidity 62    
Maximum Humidity 94    
Minimum Humidity 30    
Precipitation  
Precipitation 0.01 in - - ()
Sea Level Pressure  
Sea Level Pressure 29.82 in    
Wind  
Wind Speed 13 mph (North)    
Max Wind Speed 22 mph    
Max Gust Speed 39 mph    
Visibility 10 miles    
Events Rain , Thunderstorm    
Averages and records for this station are not official NWS values.
T = Trace of Precipitation, MM = Missing Value Source: NWS Daily Summary

Daily Weather History Graph

Daily Weather History Graph

Search for Another Location

Airport or City:

Trip Planner

Search our weather history database for the weather conditions in past years. The results will help you decide how hot, cold, wet, or windy it might be!

Date:

Astronomy

May. 21, 2013 Rise Set
Actual Time 6:30 AM CDT 8:37 PM CDT
Civil Twilight 6:01 AM CDT 9:06 PM CDT
Nautical Twilight 5:27 AM CDT 9:40 PM CDT
Astronomical Twilight 4:49 AM CDT 10:18 PM CDT
Moon 5:01 PM CDT (5/21) 3:49 AM CDT (5/21)
Length of Visible Light 15h 04m
Length of Day
14h 07m
Waxing Gibbous, 84% of the Moon is Illuminated
May 21
Waxing Gibbous
May 24
Full
May 31
Last Quarter
Jun 8
New
Jun 16
First Quarter

Hourly Weather History & Observations

Time (CDT) Temp. Dew Point Humidity Pressure Visibility Wind Dir Wind Speed Gust Speed Precip Events Conditions
12:58 AM 68.0 °F 63.1 °F 84% 29.72 in 10.0 mi NE 6.9 mph - N/A   Clear
1:58 AM 69.4 °F 63.9 °F 82% 29.70 in 10.0 mi NE 6.9 mph - N/A   Scattered Clouds
2:33 AM 66.2 °F 64.4 °F 94% 29.76 in 10.0 mi NNE 9.2 mph - N/A   Mostly Cloudy
2:58 AM 68.7 °F 64.0 °F 85% 29.71 in 10.0 mi North 10.4 mph - N/A   Mostly Cloudy
3:03 AM 69.8 °F 64.4 °F 83% 29.76 in 10.0 mi North 11.5 mph - N/A   Mostly Cloudy
3:08 AM 69.8 °F 64.4 °F 83% 29.76 in 10.0 mi North 13.8 mph - N/A   Mostly Cloudy
3:13 AM 69.8 °F 64.4 °F 83% 29.76 in 10.0 mi North 12.7 mph - N/A   Scattered Clouds
3:23 AM 69.8 °F 64.4 °F 83% 29.76 in 10.0 mi NNE 11.5 mph - N/A   Mostly Cloudy
3:58 AM 69.8 °F 63.5 °F 80% 29.73 in 10.0 mi NNE 15.0 mph 21.9 mph N/A   Overcast
4:58 AM 68.0 °F 49.8 °F 52% 29.75 in 10.0 mi NNE 21.9 mph 32.2 mph N/A   Mostly Cloudy
5:58 AM 65.5 °F 49.5 °F 56% 29.77 in 10.0 mi NNE 18.4 mph 21.9 mph N/A   Overcast
6:58 AM 64.0 °F 47.3 °F 54% 29.76 in 10.0 mi NNE 18.4 mph - N/A   Overcast
7:49 AM 62.6 °F 46.4 °F 55% 29.81 in 10.0 mi North 20.7 mph 28.8 mph N/A   Scattered Clouds
7:58 AM 62.2 °F 45.7 °F 55% 29.80 in 10.0 mi NNE 17.3 mph - N/A   Scattered Clouds
8:03 AM 62.6 °F 46.4 °F 55% 29.84 in 10.0 mi NNE 19.6 mph 24.2 mph N/A   Mostly Cloudy
8:38 AM 62.6 °F 46.4 °F 55% 29.85 in 10.0 mi NNE 20.7 mph 26.5 mph N/A   Overcast
8:58 AM 63.0 °F 46.4 °F 55% 29.84 in 10.0 mi NE 16.1 mph - N/A   Overcast
9:58 AM 63.3 °F 46.9 °F 55% 29.78 in 10.0 mi NE 17.3 mph 27.6 mph N/A   Mostly Cloudy
10:14 AM 64.4 °F 46.4 °F 52% 29.85 in 10.0 mi North 12.7 mph 27.6 mph N/A Thunderstorm Overcast
10:17 AM 64.4 °F 46.4 °F 52% 29.87 in 10.0 mi NNW 15.0 mph 27.6 mph N/A Thunderstorm Overcast
10:27 AM 64.4 °F 48.2 °F 56% 29.85 in 10.0 mi North 16.1 mph - N/A Thunderstorm Overcast
10:29 AM 62.6 °F 46.4 °F 55% 29.84 in 10.0 mi North 15.0 mph 25.3 mph N/A Thunderstorm Thunderstorm
10:32 AM 62.6 °F 46.4 °F 55% 29.83 in 10.0 mi North 15.0 mph 25.3 mph N/A Thunderstorm Thunderstorm
10:38 AM 62.6 °F 48.2 °F 59% 29.91 in 10.0 mi NW 13.8 mph 25.3 mph N/A Rain , Thunderstorm Light Thunderstorms and Rain
10:49 AM 64.4 °F 46.4 °F 52% 29.89 in 2.0 mi NNE 8.1 mph 39.1 mph N/A Rain , Thunderstorm Thunderstorms and Rain
10:55 AM 62.6 °F 48.2 °F 59% 29.89 in 3.0 mi NW 12.7 mph 33.4 mph N/A Rain , Thunderstorm Heavy Thunderstorms and Rain
11:08 AM 59.0 °F 50.0 °F 72% 29.96 in 10.0 mi NW 17.3 mph 32.2 mph N/A Rain , Thunderstorm Light Thunderstorms and Rain
11:15 AM 59.0 °F 50.0 °F 72% 29.97 in 10.0 mi WNW 18.4 mph 29.9 mph N/A   Light Drizzle
11:19 AM 59.0 °F 51.8 °F 77% 29.95 in 10.0 mi NW 19.6 mph 25.3 mph N/A   Partly Cloudy
11:58 AM 57.9 °F 53.1 °F 84% 29.92 in 10.0 mi North 10.4 mph - 0.01 in   Partly Cloudy
12:58 PM 67.6 °F 52.5 °F 58% 29.91 in 10.0 mi North 17.3 mph 23.0 mph N/A   Scattered Clouds
1:58 PM 70.5 °F 51.1 °F 50% 29.86 in 10.0 mi North 19.6 mph 27.6 mph N/A   Clear
2:58 PM 73.0 °F 50.7 °F 45% 29.83 in 10.0 mi NNE 16.1 mph 20.7 mph N/A   Clear
3:58 PM 75.9 °F 49.5 °F 39% 29.81 in 10.0 mi North 6.9 mph 18.4 mph N/A   Partly Cloudy
4:58 PM 76.8 °F 47.8 °F 36% 29.78 in 10.0 mi NNW 13.8 mph 21.9 mph N/A   Clear
5:58 PM 77.5 °F 46.9 °F 34% 29.78 in 10.0 mi NW 12.7 mph - N/A   Clear
6:58 PM 77.9 °F 44.1 °F 30% 29.78 in 10.0 mi NW 11.5 mph - N/A   Clear
7:58 PM 75.9 °F 44.1 °F 32% 29.79 in 10.0 mi NW 9.2 mph - N/A   Clear
8:58 PM 71.8 °F 44.8 °F 38% 29.81 in 10.0 mi NW 4.6 mph - N/A   Clear
9:58 PM 61.3 °F 52.2 °F 72% 29.84 in 10.0 mi ESE 5.8 mph - N/A   Clear
10:58 PM 60.8 °F 52.7 °F 75% 29.85 in 10.0 mi SE 5.8 mph - N/A   Clear
11:58 PM 56.8 °F 53.6 °F 89% 29.85 in 10.0 mi ESE 9.2 mph - N/A   Clear